GW6346 Weather Reports


time (UTC)temp
C
wind
direction
speed
KPH
gust
KPH
rain 1hr
cm
rain 24hr
cm
rain mn
cm
humidity
%
barometer
mb
20260504081532 12 194 0.0 0.0 0.00 0.00 0.00 91 1018.4
20260504050009 14 194 0.0 0.0 0.00 0.00 0.00 87 1019.8
20260504044512 14 194 0.0 0.0 0.00 0.00 0.00 86 1019.9
20260504043015 14 194 0.0 0.0 0.00 0.00 0.00 86 1019.9
20260504041504 14 194 0.0 0.0 0.00 0.00 0.00 87 1019.9
20260504040007 14 194 0.0 0.0 0.00 0.00 0.00 86 1019.9
20260504034516 15 194 0.0 0.0 0.00 0.00 0.00 86 1019.9
20260504033024 15 244 0.0 0.0 0.00 0.00 0.00 85 1019.9
20260504031528 15 244 0.0 0.0 0.00 0.00 0.00 85 1019.9
20260504030004 15 244 0.0 0.0 0.00 0.00 0.00 82 1019.8
20260504024525 16 244 0.0 0.0 0.00 0.00 0.00 81 1019.6
20260504023012 16 244 0.0 0.0 0.00 0.00 0.00 80 1019.5
20260504021516 16 244 0.0 0.0 0.00 0.00 0.00 76 1019.5
20260504020022 17 244 0.0 0.0 0.00 0.00 0.00 75 1019.2
20260504014503 17 244 0.0 0.0 0.00 0.00 0.00 74 1019.1
20260504013015 17 244 0.0 0.0 0.00 0.00 0.00 71 1018.7
20260504011512 18 244 0.0 0.0 0.00 0.00 0.00 68 1018.7
20260504010018 19 244 0.0 0.0 0.00 0.00 0.00 65 1018.7
20260504004538 20 244 0.0 0.0 0.00 0.00 0.00 60 1018.6
20260504003027 21 244 0.0 0.0 0.00 0.00 0.00 56 1018.5
20260504001509 22 244 0.0 8.0 0.00 0.00 0.00 51 1018.4
20260504000019 23 219 3.2 8.0 0.00 0.00 0.00 46 1018.4
20260503234521 23 207 6.4 12.9 0.00 0.00 0.00 44 1018.4
20260503233030 23 196 8.0 12.9 0.00 0.00 0.00 41 1018.5
20260503231526 23 212 6.4 14.5 0.00 0.00 0.00 41 1018.7
20260503230013 24 236 6.4 12.9 0.00 0.00 0.00 40 1018.7
20260503224521 24 209 4.8 17.7 0.00 0.00 0.00 40 1018.9
20260503223025 24 279 0.0 17.7 0.00 0.00 0.00 39 1019.0
20260503221525 24 213 0.0 16.1 0.00 0.00 0.00 39 1018.9
20260503220033 24 218 11.3 16.1 0.00 0.00 0.00 39 1019.2
20260503214516 24 251 8.0 19.3 0.00 0.00 0.00 40 1019.3
20260503213026 25 306 12.9 20.9 0.00 0.00 0.00 39 1019.5
20260503211535 25 224 8.0 16.1 0.00 0.00 0.00 38 1019.7
20260503210010 25 225 6.4 20.9 0.00 0.00 0.00 35 1019.8
20260503204516 26 209 1.6 11.3 0.00 0.00 0.00 33 1020.0
20260503203022 25 259 6.4 16.1 0.00 0.00 0.00 36 1020.2
20260503201503 25 216 4.8 16.1 0.00 0.00 0.00 35 1020.4
20260503200008 25 201 1.6 14.5 0.00 0.00 0.00 34 1020.6
20260503194511 25 281 8.0 16.1 0.00 0.00 0.00 37 1020.8
20260503193034 25 237 9.7 20.9 0.00 0.00 0.00 36 1021.0
20260503191522 25 215 8.0 16.1 0.00 0.00 0.00 38 1021.3
20260503190013 25 239 0.0 0.0 0.00 0.00 0.00 35 1021.5
20260503184509 26 292 3.2 9.7 0.00 0.00 0.00 29 1021.6
20260503183013 25 155 1.6 11.3 0.00 0.00 0.00 34 1021.8
20260503181520 25 350 0.0 1.6 0.00 0.00 0.00 33 1022.0
20260503180021 23 59 8.0 19.3 0.00 0.00 0.00 33 1022.0
20260503174507 23 319 1.6 9.7 0.00 0.00 0.00 37 1022.2
20260503173018 23 24 0.0 12.9 0.00 0.00 0.00 35 1022.6
20260503171518 23 38 6.4 14.5 0.00 0.00 0.00 33 1022.9